Volver al catálogo

FENGYUN 1C DEB

ActivoPO
NORAD 31173·DEBRIS·🇨🇳 China

Lanzado May 10, 1999 desde Taiyuan Satellite Launch Center

Loading…

Próximos Pases (próximas 24 horas)

TLE

EnvejeciendoSource: Space-Track

Época: Sep 9, 2026, 10:29 UTC

1 31173U 99025BJB 26252.43688324  .00001563  00000-0  76908-3 0  9993
2 31173  98.2100 323.3964 0063496  12.5262 347.7475 14.17851999678331

Sigue FENGYUN 1C DEB en tiempo real con AllMySat

Download on the App Store